Location: Arborea
(39.7744°N, 8.5819°E)
Time: 06:24:23
(UTC+00:00)

Cosmos 2322 - Pass Details

Date: 01 June 2022
Orbit: 840 x 855 km, 71.0° (Epoch: 03 July)

Event Time Altitude Azimuth Distance (km) Brightness Sun altitude
Exits shadow 22:45:19 16° 254° (WSW) 2,103 5.7 -27.4°
Maximum altitude 22:48:53 28° 304° (WNW) 1,546 5.4 -27.5°
Drops below altitude 10° 22:53:46 10° 2° (N) 2,494 7.1 -27.7°
Sets 22:56:36 0° 14° (NNE) 3,433 7.9 -27.8°
